Weather History for Glasgow, United Kingdom

Change the Weather History Date:

Tuesday, May 21, 2013

  Actual Average Record
Temperature  
Mean Temperature 53 °F -  
Max Temperature 62 °F 60 °F 66 °F (1998)
Min Temperature 44 °F 46 °F 37 °F (2004)
Degree Days  
Heating Degree Days 12    
Growing Degree Days 3 (Base 50)    
Moisture  
Dew Point 44 °F    
Average Humidity 71    
Maximum Humidity 93    
Minimum Humidity 48    
Precipitation  
Precipitation 0.00 in - - ()
Sea Level Pressure  
Sea Level Pressure 30.06 in    
Wind  
Wind Speed 8 mph ()    
Max Wind Speed 16 mph    
Max Gust Speed -    
Visibility 6.2 miles    
Events      
Averages and records for this station are not official NWS values.
T = Trace of Precipitation, MM = Missing Value Source: Averaged Metar Reports

Daily Weather History Graph

Daily Weather History Graph

Search for Another Location

Airport:

Trip Planner

Search our weather history database for the weather conditions in past years. The results will help you decide how hot, cold, wet, or windy it might be!

Date:

Astronomy

May. 21, 2013 Rise Set
Actual Time 4:55 AM BST 9:34 PM BST
Civil Twilight 4:02 AM BST 10:27 PM BST
Nautical Twilight 2:35 AM BST 11:56 PM BST
Astronomical Twilight Sun does not rise Sun does not rise
Moon 4:51 PM BST (5/21) 3:03 AM BST (5/21)
Length of Visible Light 18h 24m
Length of Day
16h 39m
Waxing Gibbous, 82% of the Moon is Illuminated
May 21
Waxing Gibbous
May 25
Full
May 31
Last Quarter
Jun 8
New
Jun 16
First Quarter

Hourly Weather History & Observations

Time (BST) Temp. Windchill Dew Point Humidity Pressure Visibility Wind Dir Wind Speed Gust Speed Precip Events Conditions
12:20 AM 57.2 °F - 50.0 °F 77% 30.04 in 6.2 mi WNW 6.9 mph - N/A   Mostly Cloudy
12:50 AM 55.4 °F - 48.2 °F 77% 30.04 in 6.2 mi West 4.6 mph - N/A   Mostly Cloudy
1:20 AM 51.8 °F - 46.4 °F 82% 30.04 in 6.2 mi WSW 5.8 mph - N/A   Partly Cloudy
1:50 AM 51.8 °F - 48.2 °F 88% 30.04 in 6.2 mi WNW 4.6 mph - N/A   Scattered Clouds
2:20 AM 51.8 °F - 46.4 °F 82% 30.04 in 6.2 mi WNW 8.1 mph - N/A   Mostly Cloudy
2:50 AM 51.8 °F - 46.4 °F 82% 30.06 in 6.2 mi WNW 9.2 mph - N/A   Mostly Cloudy
3:20 AM 50.0 °F - 46.4 °F 87% 30.04 in 6.2 mi West 6.9 mph - N/A   Scattered Clouds
3:50 AM 46.4 °F 42.9 °F 42.8 °F 87% 30.04 in - WSW 6.9 mph - N/A   Clear
4:20 AM 44.6 °F 41.4 °F 42.8 °F 93% 30.04 in - WSW 5.8 mph - N/A   Clear
4:50 AM 44.6 °F 41.4 °F 42.8 °F 93% 30.04 in - WSW 5.8 mph - N/A   Clear
5:20 AM 44.6 °F 40.7 °F 42.8 °F 93% 30.04 in - WSW 6.9 mph - N/A   Clear
5:50 AM 44.6 °F 42.2 °F 42.8 °F 93% 30.04 in - WSW 4.6 mph - N/A   Clear
6:20 AM 48.2 °F - 44.6 °F 87% 30.06 in - WSW 5.8 mph - N/A   Clear
6:50 AM 50.0 °F - 44.6 °F 82% 30.06 in 6.2 mi West 6.9 mph - N/A   Partly Cloudy
7:50 AM 51.8 °F - 44.6 °F 76% 30.06 in - WNW 10.4 mph - N/A   Clear
8:20 AM 53.6 °F - 44.6 °F 72% 30.06 in - WNW 9.2 mph - N/A   Clear
8:50 AM 53.6 °F - 44.6 °F 72% 30.06 in 6.2 mi WNW 11.5 mph - N/A   Partly Cloudy
9:20 AM 55.4 °F - 44.6 °F 67% 30.06 in 6.2 mi WNW 11.5 mph - N/A   Partly Cloudy
9:50 AM 55.4 °F - 46.4 °F 72% 30.06 in 6.2 mi WNW 11.5 mph - N/A   Partly Cloudy
10:20 AM 55.4 °F - 46.4 °F 72% 30.06 in 6.2 mi WNW 13.8 mph - N/A   Partly Cloudy
10:50 AM 57.2 °F - 46.4 °F 67% 30.06 in 6.2 mi NW 13.8 mph - N/A   Partly Cloudy
11:20 AM 57.2 °F - 44.6 °F 63% 30.06 in 6.2 mi WNW 16.1 mph - N/A   Partly Cloudy
11:50 AM 57.2 °F - 44.6 °F 63% 30.06 in 6.2 mi WNW 15.0 mph - N/A   Partly Cloudy
12:20 PM 57.2 °F - 42.8 °F 59% 30.06 in 6.2 mi WNW 16.1 mph - N/A   Partly Cloudy
12:50 PM 57.2 °F - 42.8 °F 59% 30.06 in 6.2 mi WNW 15.0 mph - N/A   Partly Cloudy
1:20 PM 57.2 °F - 44.6 °F 63% 30.06 in 6.2 mi WNW 12.7 mph - N/A   Partly Cloudy
1:50 PM 57.2 °F - 42.8 °F 59% 30.06 in 6.2 mi WNW 12.7 mph - N/A   Partly Cloudy
2:20 PM 60.8 °F - 44.6 °F 55% 30.06 in 6.2 mi WNW 11.5 mph - N/A   Partly Cloudy
2:50 PM 60.8 °F - 44.6 °F 55% 30.06 in - WNW 11.5 mph - N/A   Clear
3:20 PM 62.6 °F - 42.8 °F 48% 30.06 in - West 12.7 mph - N/A   Clear
3:50 PM 60.8 °F - 42.8 °F 52% 30.06 in 6.2 mi West 13.8 mph - N/A   Partly Cloudy
4:20 PM 60.8 °F - 42.8 °F 52% 30.06 in 6.2 mi WNW 15.0 mph - N/A   Partly Cloudy
4:50 PM 60.8 °F - 44.6 °F 55% 30.06 in 6.2 mi WNW 16.1 mph - N/A   Partly Cloudy
5:20 PM 60.8 °F - 44.6 °F 55% 30.06 in 6.2 mi WNW 16.1 mph - N/A   Partly Cloudy
5:50 PM 59.0 °F - 44.6 °F 59% 30.06 in 6.2 mi WNW 13.8 mph - N/A   Partly Cloudy
6:20 PM 59.0 °F - 42.8 °F 55% 30.06 in 6.2 mi WNW 16.1 mph - N/A   Partly Cloudy
6:50 PM 57.2 °F - 42.8 °F 59% 30.06 in - WNW 13.8 mph - N/A   Clear
7:20 PM 55.4 °F - 42.8 °F 63% 30.06 in 6.2 mi WNW 11.5 mph - N/A   Partly Cloudy
7:50 PM 53.6 °F - 42.8 °F 67% 30.06 in - WNW 11.5 mph - N/A   Clear
8:20 PM 53.6 °F - 42.8 °F 67% 30.06 in 6.2 mi WNW 13.8 mph - N/A   Partly Cloudy
8:50 PM 53.6 °F - 42.8 °F 67% 30.09 in 6.2 mi West 9.2 mph - N/A   Scattered Clouds
9:20 PM 51.8 °F - 42.8 °F 71% 30.09 in 6.2 mi West 5.8 mph - N/A   Scattered Clouds
9:50 PM 50.0 °F - 42.8 °F 76% 30.09 in 6.2 mi West 6.9 mph - N/A   Scattered Clouds
10:20 PM 50.0 °F - 42.8 °F 76% 30.12 in 6.2 mi West 8.1 mph - N/A   Partly Cloudy
10:50 PM 50.0 °F - 42.8 °F 76% 30.12 in 6.2 mi West 6.9 mph - N/A   Partly Cloudy
11:20 PM 48.2 °F - 42.8 °F 82% 30.12 in 6.2 mi West 6.9 mph - N/A   Scattered Clouds
11:50 PM 46.4 °F 42.9 °F 41.0 °F 81% 30.12 in - WSW 6.9 mph - N/A   Clear